TimeMST,TemperatureF,Dew PointF,Humidity,Sea Level PressureIn,VisibilityMPH,Wind Direction,Wind SpeedMPH,Gust SpeedMPH,PrecipitationIn,Events,Conditions,WindDirDegrees,DateUTC
12:03 AM,25.0,24.1,96,29.64,0.8,WSW,4.6,-,0.01,Snow,Light Snow,240,2013-12-08 07:03:00
12:24 AM,26.1,23.0,88,29.63,1.2,SW,5.8,-,0.02,Snow,Light Snow,220,2013-12-08 07:24:00
12:42 AM,26.1,24.1,92,29.63,0.8,WSW,11.5,-,0.03,Snow,Light Snow,250,2013-12-08 07:42:00
12:53 AM,26.1,24.1,92,29.66,0.2,WSW,9.2,-,0.04,Fog-Snow,Heavy Snow,250,2013-12-08 07:53:00
1:05 AM,26.1,24.1,92,29.62,1.0,SW,6.9,-,0.01,Snow,Light Snow,220,2013-12-08 08:05:00
1:07 AM,26.1,24.1,92,29.62,1.2,SSW,6.9,-,0.01,Snow,Light Snow,200,2013-12-08 08:07:00
1:11 AM,26.1,24.1,92,29.62,3.0,SSW,5.8,-,0.01,Snow,Light Snow,200,2013-12-08 08:11:00
1:20 AM,26.1,21.9,84,29.62,9.0,South,5.8,-,0.01,,Overcast,180,2013-12-08 08:20:00
1:39 AM,24.1,21.0,88,29.65,2.0,WNW,10.4,23.0,0.01,Snow,Light Snow,300,2013-12-08 08:39:00
1:48 AM,24.8,21.2,86,29.65,9.0,West,5.8,-,0.01,,Overcast,260,2013-12-08 08:48:00
1:53 AM,24.1,21.0,88,29.68,10.0,Calm,Calm,-,0.01,,Overcast,0,2013-12-08 08:53:00
2:53 AM,24.1,16.0,71,29.73,10.0,SW,5.8,-,N/A,,Scattered Clouds,230,2013-12-08 09:53:00
3:53 AM,21.9,14.0,72,29.74,10.0,Variable,6.9,-,N/A,,Overcast,0,2013-12-08 10:53:00
4:53 AM,21.0,16.0,81,29.75,4.0,SSW,9.2,-,0.00,Snow,Light Snow,200,2013-12-08 11:53:00
5:53 AM,18.0,10.0,71,29.80,10.0,Variable,4.6,-,0.00,,Partly Cloudy,0,2013-12-08 12:53:00
6:53 AM,17.1,15.1,92,29.86,9.0,WNW,5.8,-,N/A,,Overcast,300,2013-12-08 13:53:00
7:53 AM,18.0,15.1,88,29.92,8.0,NW,5.8,-,N/A,,Overcast,320,2013-12-08 14:53:00
8:53 AM,18.0,15.1,88,29.96,10.0,North,4.6,-,0.00,,Overcast,350,2013-12-08 15:53:00
9:53 AM,19.0,15.1,85,30.00,10.0,East,6.9,-,N/A,,Overcast,90,2013-12-08 16:53:00
10:53 AM,21.9,14.0,72,30.00,10.0,NNW,3.5,-,N/A,,Clear,340,2013-12-08 17:53:00
11:24 AM,23.0,16.0,74,29.94,10.0,North,5.8,-,N/A,,Mostly Cloudy,350,2013-12-08 18:24:00
11:50 AM,21.2,14.0,74,29.93,10.0,NNW,6.9,-,N/A,,Mostly Cloudy,330,2013-12-08 18:50:00
11:53 AM,21.0,14.0,74,29.99,10.0,NW,5.8,-,N/A,,Mostly Cloudy,320,2013-12-08 18:53:00
12:53 PM,21.0,10.9,65,29.98,10.0,NNW,6.9,-,N/A,,Mostly Cloudy,330,2013-12-08 19:53:00
1:53 PM,21.0,10.9,65,29.98,5.0,NW,6.9,-,0.00,Snow,Light Snow,310,2013-12-08 20:53:00
2:06 PM,19.9,10.9,68,29.91,9.0,NW,5.8,-,0.00,,Overcast,310,2013-12-08 21:06:00
2:53 PM,18.0,9.0,68,30.00,10.0,Calm,Calm,-,0.00,,Mostly Cloudy,0,2013-12-08 21:53:00
3:53 PM,21.0,10.9,65,30.00,10.0,NNE,3.5,-,N/A,,Scattered Clouds,20,2013-12-08 22:53:00
4:53 PM,12.9,8.1,81,30.05,10.0,North,3.5,-,N/A,,Clear,360,2013-12-08 23:53:00
5:53 PM,7.0,3.9,87,30.11,8.0,Calm,Calm,-,N/A,,Clear,0,2013-12-09 00:53:00
6:53 PM,1.0,-0.9,91,30.18,9.0,SSE,5.8,-,N/A,,Clear,150,2013-12-09 01:53:00
7:53 PM,1.9,-2.0,83,30.17,8.0,SSE,9.2,-,N/A,,Clear,160,2013-12-09 02:53:00
8:53 PM,1.0,-2.9,83,30.18,10.0,SSE,10.4,-,N/A,,Clear,160,2013-12-09 03:53:00
9:53 PM,-0.0,-5.1,79,30.19,10.0,SE,4.6,-,N/A,,Clear,140,2013-12-09 04:53:00
10:53 PM,-2.9,-6.0,87,30.20,8.0,SSE,6.9,-,N/A,,Clear,150,2013-12-09 05:53:00
11:53 PM,-6.0,-9.0,87,30.25,9.0,East,5.8,-,N/A,,Clear,100,2013-12-09 06:53:00